SWA4252 KSJC-KMDW

Flight info

Callsign SWA4252
Flight time N/A
Altitude 35000
Route LOUPE1 SYRAH Q128 JSICA JNC/N0450F370 HLC WIDMA STJ KK60G IRK ENDEE8
Aircraft B738/M-SDE2E3FGHIRWXY/LB1

Departure

Time N/A
Airport Norman Y. Mineta San Jose International Airport (KSJC)

Arrival

Time 2026-05-05 08:50
Airport Chicago Midway International Airport (KMDW)
Time Latitude Longitude Altitude Speed Heading
2026-05-05 08:15 40.97978 -89.50369 16345 ft 403 kts 56°
2026-05-05 08:15 40.99379 -89.47170 16006 ft 400 kts 56°
2026-05-05 08:15 41.00770 -89.43992 15638 ft 398 kts 56°
2026-05-05 08:15 41.02159 -89.40823 15272 ft 398 kts 56°
2026-05-05 08:16 41.03553 -89.37639 14911 ft 402 kts 56°
2026-05-05 08:16 41.04950 -89.34444 14523 ft 400 kts 56°
2026-05-05 08:16 41.06340 -89.31260 14162 ft 397 kts 56°
2026-05-05 08:16 41.07711 -89.28115 13792 ft 392 kts 56°
2026-05-05 08:17 41.09067 -89.24999 13413 ft 388 kts 56°
2026-05-05 08:17 41.10373 -89.21998 13030 ft 384 kts 56°
2026-05-05 08:17 41.10890 -89.20810 12885 ft 382 kts 56°
2026-05-05 08:18 41.12192 -89.17817 12541 ft 378 kts 56°
2026-05-05 08:18 41.13494 -89.14818 12302 ft 374 kts 56°
2026-05-05 08:18 41.14789 -89.11835 12050 ft 373 kts 56°
2026-05-05 08:18 41.16085 -89.08847 11763 ft 374 kts 57°
2026-05-05 08:19 41.17379 -89.05859 11346 ft 372 kts 57°
2026-05-05 08:19 41.18667 -89.02881 10916 ft 370 kts 57°
2026-05-05 08:19 41.19944 -88.99926 10498 ft 369 kts 57°
2026-05-05 08:19 41.21215 -88.96978 10083 ft 367 kts 58°
2026-05-05 08:20 41.22354 -88.94023 10008 ft 349 kts 63°
2026-05-05 08:20 41.23339 -88.91174 9967 ft 330 kts 64°
2026-05-05 08:20 41.24262 -88.88463 9794 ft 318 kts 64°
2026-05-05 08:20 41.25200 -88.85752 9406 ft 315 kts 63°
2026-05-05 08:21 41.26115 -88.83139 9148 ft 310 kts 63°
2026-05-05 08:21 41.27011 -88.80591 8993 ft 312 kts 63°
2026-05-05 08:21 41.27935 -88.77968 8819 ft 315 kts 63°
2026-05-05 08:21 41.28867 -88.75317 8633 ft 317 kts 63°
2026-05-05 08:22 41.29801 -88.72657 8461 ft 318 kts 63°
2026-05-05 08:22 41.30746 -88.69964 8274 ft 316 kts 63°
2026-05-05 08:22 41.31668 -88.67332 8099 ft 312 kts 63°
2026-05-05 08:22 41.32562 -88.64775 7935 ft 307 kts 63°
2026-05-05 08:23 41.33456 -88.62219 7749 ft 303 kts 63°
2026-05-05 08:23 41.34343 -88.59681 7597 ft 302 kts 63°
2026-05-05 08:23 41.35230 -88.57141 7432 ft 304 kts 63°
2026-05-05 08:23 41.36123 -88.54584 7274 ft 305 kts 63°
2026-05-05 08:24 41.37017 -88.52019 7086 ft 305 kts 63°
2026-05-05 08:24 41.38054 -88.49582 6947 ft 300 kts 51°
2026-05-05 08:24 41.39337 -88.47428 6849 ft 295 kts 47°
2026-05-05 08:24 41.40653 -88.45360 6738 ft 291 kts 47°
2026-05-05 08:25 41.41951 -88.43316 6645 ft 288 kts 48°
2026-05-05 08:25 41.43227 -88.41277 6543 ft 285 kts 48°
2026-05-05 08:25 41.44484 -88.39241 6451 ft 284 kts 49°
2026-05-05 08:25 41.45737 -88.37196 6366 ft 285 kts 49°
2026-05-05 08:26 41.46988 -88.35139 6287 ft 287 kts 49°
2026-05-05 08:26 41.48253 -88.33055 6186 ft 289 kts 49°
2026-05-05 08:26 41.49514 -88.30973 6110 ft 289 kts 49°
2026-05-05 08:26 41.50621 -88.28741 5979 ft 290 kts 69°
2026-05-05 08:27 41.51009 -88.26132 5922 ft 284 kts 82°
2026-05-05 08:27 41.51240 -88.23527 5820 ft 283 kts 83°
2026-05-05 08:27 41.51462 -88.20930 5726 ft 280 kts 83°
2026-05-05 08:27 41.51682 -88.18373 5654 ft 276 kts 82°
2026-05-05 08:28 41.51901 -88.15863 5549 ft 268 kts 82°
2026-05-05 08:28 41.52115 -88.13434 5462 ft 259 kts 82°
2026-05-05 08:28 41.52326 -88.11069 5399 ft 255 kts 82°
2026-05-05 08:28 41.52537 -88.08724 5318 ft 254 kts 82°
2026-05-05 08:29 41.52747 -88.06387 5260 ft 253 kts 82°
2026-05-05 08:29 41.52956 -88.04061 5183 ft 252 kts 82°
2026-05-05 08:29 41.53162 -88.01759 5090 ft 252 kts 82°
2026-05-05 08:30 41.53579 -87.97113 4943 ft 252 kts 82°
2026-05-05 08:30 41.53787 -87.94800 4861 ft 251 kts 82°
2026-05-05 08:30 41.53992 -87.92490 4780 ft 250 kts 81°
2026-05-05 08:30 41.54196 -87.90185 4703 ft 249 kts 81°
2026-05-05 08:31 41.54401 -87.87898 4637 ft 248 kts 81°
2026-05-05 08:31 41.54918 -87.85748 4515 ft 241 kts 50°
2026-05-05 08:31 41.56060 -87.84216 4477 ft 228 kts 38°
2026-05-05 08:31 41.57217 -87.82827 4377 ft 220 kts 38°
2026-05-05 08:32 41.58334 -87.81485 4285 ft 213 kts 38°
2026-05-05 08:32 41.59426 -87.80168 4265 ft 210 kts 38°
2026-05-05 08:32 41.60507 -87.78863 4210 ft 209 kts 38°
2026-05-05 08:32 41.61579 -87.77564 4115 ft 207 kts 38°
2026-05-05 08:33 41.62635 -87.76283 4007 ft 204 kts 38°
2026-05-05 08:33 41.63666 -87.75028 3981 ft 196 kts 38°
2026-05-05 08:33 41.64667 -87.73810 3702 ft 198 kts 39°
2026-05-05 08:33 41.65706 -87.72552 3240 ft 205 kts 37°
2026-05-05 08:34 41.66789 -87.71289 2837 ft 207 kts 39°
2026-05-05 08:34 41.67796 -87.70055 2661 ft 190 kts 38°
2026-05-05 08:34 41.68737 -87.68898 2523 ft 172 kts 37°
2026-05-05 08:34 41.69661 -87.68037 2475 ft 158 kts 20°
2026-05-05 08:35 41.70693 -87.67646 2370 ft 152 kts
2026-05-05 08:35 41.71733 -87.67604 2218 ft 150 kts 355°
2026-05-05 08:35 41.72734 -87.67858 2103 ft 136 kts 339°
2026-05-05 08:35 41.73511 -87.68424 1922 ft 126 kts 327°
2026-05-05 08:36 41.74172 -87.69180 1772 ft 123 kts 322°
2026-05-05 08:36 41.74784 -87.69976 1602 ft 126 kts 318°
2026-05-05 08:36 41.75403 -87.70829 1444 ft 127 kts 316°
2026-05-05 08:36 41.76010 -87.71678 1266 ft 131 kts 315°
2026-05-05 08:37 41.76646 -87.72502 1374 ft 125 kts 321°
2026-05-05 08:37 41.77304 -87.73282 1603 ft 132 kts 319°
2026-05-05 08:37 41.77959 -87.74144 2134 ft 134 kts 318°
2026-05-05 08:37 41.78697 -87.75173 2355 ft 176 kts 317°
2026-05-05 08:38 41.79595 -87.76399 2818 ft 195 kts 317°
2026-05-05 08:38 41.80546 -87.77759 3346 ft 205 kts 312°
2026-05-05 08:38 41.81292 -87.79351 3882 ft 210 kts 289°
2026-05-05 08:38 41.81352 -87.81278 3941 ft 208 kts 265°
2026-05-05 08:39 41.81172 -87.83224 3993 ft 212 kts 266°
2026-05-05 08:39 41.80996 -87.85209 3999 ft 215 kts 266°
2026-05-05 08:39 41.80600 -87.87136 3974 ft 220 kts 238°
2026-05-05 08:39 41.79383 -87.88329 3983 ft 220 kts 196°
2026-05-05 08:40 41.77881 -87.88328 4007 ft 213 kts 176°
2026-05-05 08:40 41.76428 -87.88100 4019 ft 210 kts 176°
2026-05-05 08:40 41.74990 -87.87872 3987 ft 206 kts 176°
2026-05-05 08:40 41.73573 -87.87639 4000 ft 205 kts 176°
2026-05-05 08:41 41.72154 -87.87410 3998 ft 206 kts 176°
2026-05-05 08:41 41.70730 -87.87187 3997 ft 206 kts 176°
2026-05-05 08:41 41.69314 -87.86963 3977 ft 203 kts 176°
2026-05-05 08:41 41.67927 -87.86740 3983 ft 200 kts 176°
2026-05-05 08:42 41.66553 -87.86517 3981 ft 197 kts 176°
2026-05-05 08:42 41.65197 -87.86294 3978 ft 196 kts 176°
2026-05-05 08:42 41.63840 -87.86080 3987 ft 196 kts 176°
2026-05-05 08:42 41.62488 -87.85863 3990 ft 196 kts 176°
2026-05-05 08:43 41.61154 -87.85490 3981 ft 199 kts 152°
2026-05-05 08:43 41.60317 -87.84101 3999 ft 195 kts 101°
2026-05-05 08:43 41.60469 -87.82338 4014 ft 195 kts 63°
2026-05-05 08:43 41.61127 -87.80749 3996 ft 195 kts 54°
2026-05-05 08:44 41.61606 -87.79736 3989 ft 193 kts 53°
2026-05-05 08:44 41.62310 -87.78251 3972 ft 185 kts 53°
2026-05-05 08:44 41.62986 -87.76811 3968 ft 182 kts 54°
2026-05-05 08:44 41.63658 -87.75368 3984 ft 183 kts 54°
2026-05-05 08:45 41.64433 -87.74003 3989 ft 185 kts 38°
2026-05-05 08:45 41.65429 -87.72840 3556 ft 203 kts 37°
2026-05-05 08:45 41.66509 -87.71563 3069 ft 202 kts 37°
2026-05-05 08:45 41.67516 -87.70370 2913 ft 182 kts 37°
2026-05-05 08:46 41.68417 -87.69295 2748 ft 168 kts 38°
2026-05-05 08:46 41.69238 -87.68313 2627 ft 148 kts 30°
2026-05-05 08:46 41.70120 -87.67707 2338 ft 141 kts 14°
2026-05-05 08:46 41.71005 -87.67416 2200 ft 125 kts
2026-05-05 08:47 41.71822 -87.67480 2258 ft 122 kts 345°
2026-05-05 08:47 41.72633 -87.67862 2165 ft 126 kts 342°
2026-05-05 08:47 41.73420 -87.68224 2074 ft 112 kts 335°
2026-05-05 08:47 41.74036 -87.68849 1872 ft 114 kts 317°
2026-05-05 08:48 41.74599 -87.69677 1727 ft 124 kts 316°
2026-05-05 08:48 41.75180 -87.70530 1580 ft 125 kts 317°
2026-05-05 08:48 41.75775 -87.71378 1367 ft 126 kts 315°
2026-05-05 08:48 41.76389 -87.72214 1208 ft 128 kts 316°
2026-05-05 08:49 41.76994 -87.73057 1032 ft 121 kts 313°
2026-05-05 08:49 41.77588 -87.73892 813 ft 124 kts 315°
2026-05-05 08:49 41.78185 -87.74743 640 ft 128 kts 314°
2026-05-05 08:49 41.78709 -87.75476 616 ft 60 kts 314°
2026-05-05 08:50 41.78866 -87.75688 626 ft 29 kts 321°
2026-05-05 08:50 41.79004 -87.75792 626 ft 18 kts 339°
2026-05-05 08:50 41.79108 -87.75800 620 ft 14 kts 41°
2026-05-05 08:50 41.79123 -87.75673 618 ft 14 kts 101°
2026-05-05 08:51 41.79072 -87.75570 615 ft 13 kts 133°
2026-05-05 08:51 41.79010 -87.75483 621 ft 13 kts 133°
2026-05-05 08:51 41.78946 -87.75391 625 ft 14 kts 133°
2026-05-05 08:51 41.78882 -87.75300 612 ft 13 kts 133°
2026-05-05 08:52 41.78819 -87.75211 629 ft 13 kts 138°
2026-05-05 08:52 41.78756 -87.75127 630 ft 13 kts 134°
2026-05-05 08:52 41.78696 -87.75044 614 ft 12 kts 134°
2026-05-05 08:52 41.78639 -87.74961 622 ft 12 kts 133°
2026-05-05 08:53 41.78582 -87.74881 615 ft 12 kts 133°
2026-05-05 08:53 41.78558 -87.74787 617 ft 11 kts 70°
2026-05-05 08:53 41.78540 -87.74692 628 ft 11 kts 130°
2026-05-05 08:53 41.78494 -87.74613 625 ft 11 kts 110°
2026-05-05 08:54 41.78537 -87.74542 622 ft 11 kts 36°
2026-05-05 08:54 41.78598 -87.74491 629 ft 10 kts 16°
2026-05-05 08:54 41.78632 -87.74493 628 ft 2 kts 333°
2026-05-05 08:54 41.78645 -87.74507 622 ft 2 kts 315°
2026-05-05 08:55 41.78645 -87.74508 622 ft 0 kts 313°
2026-05-05 08:55 41.78646 -87.74508 618 ft 0 kts 313°